sat.trackr.live / text

‹ back to catalog

STARLINK-11630 [DTC]

NORAD 63111 · 2025-039H

PAYLOAD ACTIVE UNKNOWN

§ Identity

Operator
Country
US
Launch date
2025-02-27
Launch site
AFETR
Launch vehicle
Mass (kg)
RCS (m²)

Purposes: comms

External: N2YO · Heavens-Above · Gunter

§ Orbital elements

Epoch: 2026-09-20T23:06:11.880864Z

Period
91.67 min
Inclination
43.0002°
Eccentricity
0.0001227
Mean motion
15.70830399 rev/d
Perigee alt
355.7 km
Apogee alt
357.3 km
Semi-major
6,734.7 km
B*
1.3630e-3
RAAN
140.0884°
Arg perigee
252.2723°
Mean anomaly
107.8011°
Rev number
9,032

§ Raw data

STARLINK-11630 [DTC]1 63111U 25039H   26263.96263751  .00178167  00000+0  13630-2 0  99932 63111  43.0002 140.0884 0001227 252.2723 107.8011 15.70830399 90320

JSON: /api/v1/satellites/63111 · /tle

For live sub-satellite position, see the globe view (requires WebGL).

§ Visibility from observer

Set your observer location to see the next 7 days of passes ≥ 10°. The values pass through the URL so the page stays shareable.

No JS? Fill the form by hand. The geolocation button needs JavaScript.